Location: Pardubice
(50.0618°N, 15.7556°E)
Time: 01:01:05
(UTC+02:00)

ISS - Pass Details

Date: 28 May 2018
Orbit: 402 x 408 km, 51.6° (Epoch: 20 September)

Event Time Altitude Azimuth Distance (km) Brightness Sun altitude
Rises 22:35:18 0° 279° (W) 2,324 0.7 -12.1°
Reaches altitude 10° 22:37:24 10° 282° (WNW) 1,462 -0.3 -12.2°
Maximum altitude 22:40:40 67° 6° (N) 442 -3.5 -12.5°
Drops below altitude 10° 22:43:55 10° 90° (E) 1,458 -1.3 -12.8°
Enters shadow 22:44:14 - 91° (E) 1,587 -1.1 -12.8°
